Overview Statistics Trail Chart Weather Telemetry Raw packets
 

This is the latest recevied weather packets stored in our database for station/object VK4TOM-13. If no packets are shown the sender has not sent any weather packets the latest 10 day(s).

<< 14 15 16 17 18 19 20 >>
Time Temp. Humidity Pressure Rain* Wind** Luminosity Snow
1788389153 21.11° C 70% 1024.1 hPa 0 mm - - -
1788388552 20.56° C 70% 1024.1 hPa 0 mm - - -
1788387951 19.44° C 70% 1024.2 hPa 0 mm - - -
1788387350 18.89° C 70% 1024.1 hPa 0 mm - - -
1788386749 17.78° C 70% 1024.2 hPa 0 mm - - -
1788386148 16.67° C 70% 1024.1 hPa 0 mm - - -
1788385547 16.11° C 70% 1024 hPa 0 mm - - -
1788384946 15.56° C 70% 1024 hPa 0 mm - - -
1788384345 15° C 70% 1023.7 hPa 0 mm - - -
1788383743 15° C 70% 1023.7 hPa 0 mm - - -
1788383142 14.44° C 70% 1023.5 hPa 0 mm - - -
1788382567 13.89° C 70% 1023.2 hPa 0 mm - - -
1788381940 13.89° C 70% 1023.1 hPa 0 mm - - -
1788381339 13.89° C 70% 1023.1 hPa 0 mm - - -
1788380738 13.89° C 70% 1023 hPa 0 mm - - -
1788378935 13.89° C 70% 1022.6 hPa 0 mm - - -
1788378334 14.44° C 70% 1022.4 hPa 0 mm - - -
1788377733 14.44° C 70% 1022.4 hPa 0 mm - - -
1788376530 14.44° C 70% 1022.2 hPa 0 mm - - -
1788375929 14.44° C 70% 1022.2 hPa 0 mm - - -
1788375328 15° C 70% 1022.2 hPa 0 mm - - -
1788374727 15° C 70% 1022.1 hPa 0 mm - - -
1788373525 15° C 70% 1021.9 hPa 0 mm - - -
1788372924 15° C 70% 1021.9 hPa 0 mm - - -
1788372323 15.56° C 70% 1021.8 hPa 0 mm - - -

* Rain since midnight (hover to see other rain measurements)
** Current wind speed in m/s (hover to see current wind gust speed)